Wind_Speed
33 32 32 33 34 34 31 31 26 16 29 39 32 28 28 26 29 32 26 23 20 20 19 19 20 19 20 21 20 20 20 20 19 19 20 23 25 26 26 26 22 20 20 19 18 21 25 25 23
38 37 37 37 39 38 33 30 17 12 38 39 38 29 32 26 35 36 30 26 23 23 21 20 22 20 23 22 20 19 19 20 20 20 21 23 24 25 25 23 20 20 19 17 17 18 23 24 22
38 38 41 43 44 42 38 31 8 23 42 45 41 30 34 34 34 40 29 29 26 24 21 19 22 22 25 23 20 20 20 21 21 20 21 22 23 25 23 22 21 21 20 17 19 18 22 25 24
39 40 42 44 43 40 40 36 24 24 47 48 40 35 38 39 40 41 34 32 28 26 21 19 22 24 25 22 22 21 21 23 23 22 23 22 23 25 24 23 23 21 21 20 18 18 21 26 26
40 42 45 43 41 38 37 36 27 39 45 49 43 38 40 39 43 43 37 34 31 26 22 18 21 23 22 23 22 22 24 25 24 24 24 23 23 23 23 24 24 23 22 21 20 19 21 24 26
43 42 45 44 41 41 39 37 42 43 45 46 48 40 36 44 44 43 40 38 35 27 22 19 21 21 23 23 24 25 25 25 25 25 25 24 23 22 25 24 25 23 21 23 23 22 25 25 24
44 45 44 43 43 43 42 16 30 34 47 43 48 43 42 43 50 43 40 41 37 31 25 21 21 20 22 24 26 25 25 25 25 25 26 24 23 20 22 25 20 21 20 22 19 19 24 29 28
48 47 48 46 42 43 43 34 35 43 48 37 45 48 50 52 51 46 42 41 40 34 28 21 21 21 22 25 27 26 25 24 24 24 25 25 23 22 24 27 26 27 26 27 25 24 25 26 28
46 53 54 47 44 43 42 43 44 54 51 43 41 46 52 55 49 49 46 41 41 37 30 23 22 23 22 26 26 27 26 26 26 26 26 26 25 25 25 26 26 26 27 26 21 24 22 24 26
50 51 50 47 50 49 48 42 44 54 48 45 45 48 53 54 53 48 47 42 41 37 31 26 23 24 23 26 26 27 28 28 27 27 27 28 27 28 27 29 29 28 28 23 23 26 31 28 25
51 52 48 48 50 53 54 53 52 52 45 47 47 48 55 55 53 51 48 40 41 39 34 29 25 24 25 25 25 28 31 29 28 29 30 29 29 30 30 29 30 28 29 26 25 27 23 29 32
53 54 55 52 50 53 57 57 59 56 50 48 49 50 53 56 52 52 47 43 40 36 33 30 28 24 24 26 25 29 31 30 30 32 33 32 30 32 31 29 32 28 30 26 30 28 24 23 35
48 52 57 60 57 57 57 61 63 55 51 51 50 50 52 52 54 51 45 42 41 37 34 30 30 26 23 25 27 31 32 32 32 33 33 33 32 33 32 30 33 31 30 28 30 27 27 23 31
50 53 56 60 62 61 62 61 63 59 49 51 51 50 52 52 51 52 46 44 41 37 35 29 30 28 24 26 28 32 33 35 34 34 32 32 34 34 33 29 30 32 29 27 27 25 20 26 31
51 56 59 61 64 63 63 62 61 57 45 46 49 51 50 51 50 51 48 44 40 37 35 33 29 30 26 27 28 32 35 36 37 36 29 31 34 32 30 29 29 31 28 27 29 25 22 24 31
51 57 59 56 61 64 64 66 59 52 55 42 48 49 49 49 48 48 45 41 39 35 35 37 33 28 29 28 30 32 35 37 36 30 29 29 30 27 28 28 28 31 30 30 27 27 28 28 23
51 57 58 55 52 56 51 65 61 48 50 51 48 48 46 48 47 46 43 39 36 35 37 39 32 26 28 30 31 32 35 36 31 27 28 29 27 27 27 28 29 32 33 33 27 27 28 19 21
49 54 53 51 51 50 54 57 61 45 46 45 54 41 47 43 41 39 39 36 37 37 39 37 31 27 28 32 32 32 33 32 29 27 27 28 27 26 27 29 29 28 31 29 24 30 28 26 22
51 53 51 48 45 29 41 51 54 50 49 47 44 44 39 41 37 36 37 38 36 38 38 36 32 26 29 30 32 31 30 30 30 26 26 27 25 26 28 30 28 27 29 28 30 27 31 31 28
53 53 49 48 47 44 49 50 52 59 39 44 41 37 40 39 39 41 42 43 39 40 39 37 33 28 29 31 31 33 31 31 27 24 27 27 25 27 30 31 31 27 29 32 32 33 32 36 37
52 51 51 47 42 43 45 49 49 28 36 41 46 38 38 37 38 40 41 40 38 38 38 37 33 32 30 30 34 35 32 28 24 26 26 26 24 28 29 30 30 32 31 38 31 32 31 32 29
47 42 44 44 42 43 35 45 35 16 29 36 35 37 40 42 42 40 39 41 41 40 37 36 32 33 30 29 36 34 27 25 25 25 23 24 25 29 28 29 28 33 30 28 34 36 35 37 31
41 34 40 38 38 38 39 40 30 22 17 20 19 29 40 41 44 44 43 40 40 38 34 36 31 31 30 32 36 32 25 24 27 22 22 23 26 29 28 29 30 29 34 35 34 37 38 34 33
36 34 39 32 32 39 35 39 39 30 14 26 41 34 35 42 37 34 39 37 38 36 36 37 29 32 30 34 34 29 23 26 22 20 22 25 27 29 28 29 30 30 32 33 36 43 34 36 39
41 32 27 25 30 34 28 20 33 19 38 36 23 27 38 39 36 40 37 36 37 34 33 35 24 34 31 33 33 28 25 24 20 19 23 27 27 29 29 27 27 30 33 37 40 44 39 40 38
35 35 28 28 23 18 11 22 9 25 30 32 31 32 30 34 36 37 38 34 32 32 34 23 33 35 27 31 31 27 25 21 18 20 24 25 27 28 27 30 29 33 35 41 39 38 38 36 40
30 36 25 23 20 17 18 16 20 21 27 28 33 33 31 29 30 34 32 31 29 32 25 29 32 27 27 30 26 22 22 19 17 21 24 25 28 28 26 29 34 29 31 35 44 43 38 36 34
20 25 34 33 20 18 14 21 20 31 34 32 32 30 28 30 29 28 28 28 24 24 27 28 24 27 28 25 24 22 21 17 18 22 24 26 27 28 30 26 23 23 23 34 45 42 39 36 38
28 25 25 30 31 11 12 13 20 23 30 36 30 29 27 30 26 22 24 24 23 21 26 25 26 27 25 25 26 18 17 18 19 21 24 25 26 27 29 25 24 25 28 28 32 40 35 30 45
21 30 26 31 33 22 18 19 16 31 39 12 17 17 22 26 24 20 22 22 22 24 25 27 26 25 23 28 24 17 19 20 20 19 23 22 23 24 21 25 24 30 29 33 37 37 36 37 47
Wind_Direction
262 262 260 260 256 256 258 262 262 233 247 250 257 259 249 232 234 242 272 276 269 276 281 282 284 295 297 297 300 304 306 303 303 301 299 297 297 295 294 292 289 292 289 275 269 255 242 236 231
263 263 262 259 255 257 258 262 274 254 250 255 259 255 255 241 250 258 264 265 266 270 277 273 280 292 294 294 302 307 310 309 306 303 299 296 298 296 291 283 287 292 289 279 266 258 243 232 228
262 260 260 259 258 255 259 260 189 245 251 254 257 253 254 250 249 254 262 263 260 269 270 265 276 288 289 295 299 305 309 310 310 302 296 296 299 296 285 278 279 281 282 274 269 265 239 232 225
262 261 260 259 258 260 261 258 214 244 249 256 258 258 250 252 253 258 256 257 256 265 266 260 272 285 285 293 300 305 309 309 308 304 298 299 298 294 285 276 274 274 277 269 261 254 235 226 224
263 262 261 261 262 260 260 263 224 239 240 258 261 258 258 253 254 258 260 260 252 258 269 257 273 280 284 288 296 301 305 306 306 304 300 299 296 297 287 276 271 271 272 270 255 245 238 228 224
264 264 263 264 265 263 262 257 251 247 253 259 260 253 259 261 254 252 256 261 254 256 263 257 268 274 280 288 292 296 299 301 304 302 298 296 299 293 289 284 277 267 267 276 252 245 232 225 224
264 264 264 265 262 261 259 262 278 257 256 247 260 261 256 259 255 251 257 259 256 255 262 256 267 270 278 286 289 291 294 298 303 301 295 294 293 288 287 282 274 267 265 263 243 248 240 234 227
263 263 263 262 264 262 261 239 241 240 255 256 251 258 259 254 255 255 256 260 256 257 260 251 266 269 275 283 287 290 294 301 302 298 296 292 291 288 280 277 275 271 258 250 241 246 240 238 237
260 259 261 264 269 270 262 255 244 256 258 260 253 253 256 259 254 255 256 261 255 258 260 251 262 266 272 279 284 289 296 302 302 301 299 295 290 288 281 273 275 274 273 255 242 244 240 235 238
260 260 262 264 262 263 261 256 248 252 259 255 253 252 255 259 259 255 257 250 252 257 262 254 259 261 267 274 282 289 297 302 302 300 301 297 288 287 285 277 269 277 279 280 250 252 247 248 226
260 260 258 258 260 256 257 256 254 258 255 256 253 252 255 252 256 256 254 244 249 257 258 254 257 254 263 274 277 287 293 297 300 298 299 295 288 282 286 278 270 269 277 279 277 262 270 257 228
263 261 259 257 255 255 255 255 256 259 257 256 255 250 253 258 252 256 252 255 260 256 253 251 255 250 261 273 279 286 290 294 294 295 293 287 281 279 283 277 267 264 273 274 271 250 249 258 222
265 260 259 259 255 254 252 255 257 256 258 255 254 253 253 254 256 252 249 254 259 259 251 247 257 249 260 270 279 283 289 293 291 286 282 280 278 276 279 277 267 262 266 270 276 259 258 248 233
267 262 258 256 255 255 252 252 256 255 257 256 253 253 253 251 252 254 251 254 258 259 256 245 251 252 257 268 274 282 289 293 288 283 276 276 275 275 278 272 264 261 265 269 269 246 240 237 224
266 265 261 257 258 253 257 251 253 259 258 254 252 250 251 252 252 252 254 254 255 256 253 250 245 255 259 264 272 277 282 286 289 280 272 273 274 277 275 270 265 260 264 263 259 233 227 240 222
270 265 263 261 265 262 259 248 253 256 249 251 250 249 248 249 250 252 252 250 253 249 247 249 252 247 260 267 268 274 277 275 277 276 270 271 276 276 271 269 263 258 257 256 247 222 223 231 217
267 270 272 268 270 266 263 251 250 249 255 248 247 249 249 248 248 247 250 248 242 244 242 244 251 254 256 269 272 275 275 274 274 268 273 277 275 271 270 273 265 261 254 257 226 223 224 214 213
276 275 270 270 272 264 261 257 248 245 246 249 243 248 247 248 246 245 243 241 240 243 245 247 252 258 257 268 278 279 270 274 272 265 273 280 275 272 272 273 264 260 250 245 241 228 234 229 221
268 266 270 271 275 256 264 260 253 241 244 244 247 243 243 244 237 237 238 238 243 246 247 253 260 259 264 272 280 273 266 268 267 267 275 273 270 273 274 271 256 254 239 234 230 226 229 228 221
269 265 265 265 267 259 256 255 246 241 241 246 244 237 238 236 235 235 239 240 242 246 250 257 264 266 267 272 271 271 263 262 264 267 277 268 271 274 277 267 253 250 236 234 230 227 229 223 222
262 260 262 262 264 271 263 254 252 252 251 245 239 240 237 240 240 239 238 241 244 247 250 256 263 264 268 270 265 269 261 260 262 263 266 268 273 274 274 261 253 254 249 239 232 222 225 226 224
256 248 252 256 261 271 259 259 247 237 247 244 239 236 237 238 238 242 241 241 244 246 248 255 259 263 271 268 266 268 262 255 258 263 261 269 272 277 269 260 258 253 258 234 234 226 226 225 226
262 247 246 250 261 262 262 243 231 200 204 248 234 232 231 235 235 236 240 243 244 250 254 258 255 261 274 259 265 265 250 249 256 260 264 266 272 272 267 265 259 254 254 253 238 221 225 226 222
243 231 245 248 253 260 268 236 229 207 215 225 244 235 234 235 237 237 240 243 246 248 253 256 261 259 266 258 262 257 243 246 253 263 265 266 270 275 270 270 258 256 250 249 241 223 235 219 225
224 238 219 245 252 269 260 236 246 227 207 225 240 233 232 233 239 237 240 242 244 246 249 258 249 257 260 250 253 248 239 246 254 256 264 266 271 274 269 266 261 261 255 244 228 222 222 219 226
208 230 221 217 248 272 236 215 224 192 224 221 223 230 232 233 231 234 241 245 248 250 252 255 244 256 251 241 242 239 242 248 256 263 263 267 272 272 270 271 261 264 246 234 225 217 222 225 221
219 216 203 209 217 222 225 194 242 207 207 226 234 241 240 237 233 235 238 238 242 249 243 244 247 244 241 235 231 242 245 243 255 262 265 270 272 276 276 270 281 251 220 226 212 216 221 224 224
216 216 208 207 201 209 222 199 193 211 225 233 243 248 242 242 235 239 240 242 244 241 236 246 238 235 234 231 233 240 232 242 250 259 265 266 272 281 285 271 270 227 222 219 214 222 218 225 220
221 205 212 207 205 198 182 195 230 229 201 220 229 236 238 242 241 237 239 239 234 231 240 232 233 235 233 227 239 233 232 241 246 255 265 268 276 282 286 274 255 223 218 226 221 217 219 227 212
228 205 201 210 211 199 189 207 199 195 225 212 218 222 236 242 241 231 234 232 230 226 231 231 228 226 227 234 241 233 231 239 244 254 267 275 279 281 271 280 242 223 234 225 218 216 218 216 211
Height
5823 5822 5822 5824 5827 5826 5831 5833 5835 5837 5839 5835 5837 5839 5840 5839 5837 5836 5836 5836 5839 5840 5841 5841 5840 5839 5838 5837 5835 5834 5833 5833 5832 5831 5830 5828 5827 5826 5824 5822 5822 5822 5822 5822 5822 5823 5824 5825 5827
5817 5817 5817 5816 5820 5821 5827 5828 5830 5834 5830 5829 5831 5836 5835 5837 5830 5830 5833 5833 5835 5836 5837 5837 5836 5835 5834 5833 5832 5831 5830 5829 5828 5827 5826 5824 5823 5822 5821 5819 5820 5819 5818 5818 5818 5819 5822 5823 5824
5809 5809 5810 5810 5812 5815 5820 5823 5830 5829 5822 5821 5823 5829 5829 5830 5827 5823 5828 5829 5830 5831 5832 5832 5832 5831 5830 5829 5828 5827 5826 5825 5823 5822 5821 5820 5819 5818 5817 5817 5817 5816 5814 5815 5816 5817 5818 5820 5821
5802 5803 5802 5801 5806 5811 5811 5817 5820 5819 5813 5815 5818 5821 5821 5821 5821 5818 5822 5823 5824 5825 5827 5827 5827 5826 5826 5825 5824 5823 5822 5820 5819 5818 5816 5815 5815 5814 5813 5813 5814 5813 5812 5813 5812 5814 5815 5816 5819
5794 5794 5795 5796 5799 5802 5805 5807 5812 5808 5810 5807 5812 5814 5813 5813 5813 5812 5818 5816 5817 5820 5821 5822 5821 5821 5821 5821 5819 5818 5817 5816 5815 5814 5812 5810 5811 5811 5809 5808 5809 5808 5808 5809 5809 5810 5812 5813 5815
5786 5788 5786 5789 5794 5796 5797 5800 5802 5802 5802 5803 5801 5808 5809 5803 5805 5808 5810 5811 5811 5814 5815 5816 5816 5816 5816 5815 5814 5813 5812 5812 5810 5809 5808 5807 5807 5807 5806 5806 5806 5805 5804 5806 5804 5806 5807 5809 5812
5779 5779 5780 5782 5783 5785 5789 5794 5795 5794 5791 5798 5793 5798 5802 5798 5794 5799 5803 5804 5805 5807 5809 5810 5810 5811 5810 5809 5809 5808 5807 5807 5806 5804 5803 5803 5803 5803 5803 5801 5801 5802 5801 5800 5801 5802 5803 5806 5808
5771 5771 5771 5773 5777 5778 5782 5785 5783 5783 5783 5789 5790 5788 5788 5786 5789 5791 5796 5797 5799 5801 5803 5805 5805 5805 5804 5804 5803 5802 5802 5802 5801 5800 5799 5799 5799 5800 5799 5797 5798 5796 5796 5793 5796 5797 5798 5802 5804
5759 5759 5762 5769 5771 5773 5772 5772 5775 5772 5775 5778 5782 5780 5777 5777 5783 5785 5788 5790 5793 5795 5797 5799 5799 5798 5798 5798 5797 5796 5796 5797 5796 5794 5794 5794 5794 5793 5794 5792 5793 5792 5790 5788 5790 5793 5795 5797 5799
5747 5749 5756 5760 5761 5761 5761 5760 5763 5759 5768 5769 5770 5771 5771 5770 5772 5776 5779 5784 5784 5788 5790 5793 5794 5792 5791 5792 5791 5791 5791 5790 5789 5788 5788 5789 5789 5787 5787 5788 5787 5788 5788 5787 5789 5788 5792 5795 5796
5738 5740 5743 5746 5747 5748 5749 5748 5749 5753 5758 5759 5760 5762 5760 5762 5764 5767 5769 5774 5779 5781 5783 5786 5787 5786 5785 5787 5787 5786 5785 5783 5782 5782 5782 5783 5782 5782 5781 5783 5780 5783 5783 5782 5781 5785 5787 5790 5792
5726 5730 5730 5734 5733 5734 5737 5737 5736 5742 5749 5749 5749 5750 5751 5751 5757 5758 5762 5765 5768 5773 5775 5778 5780 5780 5780 5779 5781 5779 5779 5777 5776 5776 5776 5776 5776 5774 5774 5776 5774 5776 5777 5777 5776 5772 5781 5784 5786
5714 5717 5718 5720 5721 5722 5722 5724 5727 5734 5737 5738 5740 5741 5742 5744 5747 5750 5753 5758 5761 5764 5767 5771 5772 5773 5774 5773 5774 5772 5771 5770 5770 5770 5769 5769 5769 5767 5767 5769 5769 5769 5771 5772 5771 5771 5773 5777 5781
5703 5705 5706 5706 5707 5708 5709 5712 5715 5724 5726 5727 5729 5732 5733 5734 5739 5741 5744 5749 5753 5757 5758 5763 5765 5766 5767 5767 5766 5765 5764 5764 5764 5763 5762 5761 5761 5760 5760 5762 5763 5763 5765 5765 5766 5767 5769 5772 5773
5693 5691 5693 5696 5695 5694 5695 5703 5705 5713 5712 5716 5718 5721 5724 5727 5730 5732 5736 5740 5746 5748 5750 5754 5758 5758 5760 5760 5759 5757 5756 5756 5756 5756 5756 5755 5753 5752 5752 5754 5757 5756 5758 5758 5759 5762 5764 5765 5767
5682 5678 5679 5690 5685 5687 5682 5691 5696 5699 5697 5705 5709 5709 5713 5717 5721 5723 5727 5733 5737 5740 5742 5744 5749 5752 5751 5752 5751 5751 5750 5749 5747 5747 5748 5747 5745 5745 5745 5747 5749 5750 5750 5750 5752 5755 5758 5760 5763
5670 5666 5667 5672 5671 5672 5666 5674 5679 5687 5687 5693 5696 5701 5703 5707 5710 5714 5719 5723 5728 5731 5733 5736 5741 5745 5743 5743 5743 5743 5742 5742 5742 5742 5740 5739 5739 5739 5739 5741 5742 5742 5742 5745 5747 5751 5754 5755 5760
5661 5652 5656 5658 5662 5657 5654 5659 5663 5674 5676 5681 5684 5691 5694 5699 5703 5706 5710 5714 5719 5723 5725 5728 5733 5736 5736 5735 5735 5735 5734 5734 5734 5735 5734 5733 5732 5733 5734 5734 5735 5736 5735 5739 5740 5745 5749 5753 5756
5643 5642 5644 5650 5649 5647 5644 5646 5651 5660 5663 5670 5675 5683 5686 5691 5694 5698 5701 5706 5711 5715 5717 5719 5722 5728 5726 5726 5727 5727 5726 5726 5727 5728 5728 5727 5727 5727 5728 5728 5729 5730 5731 5732 5738 5738 5744 5747 5751
5628 5630 5635 5636 5638 5634 5636 5636 5638 5646 5657 5662 5668 5673 5677 5682 5685 5690 5693 5698 5703 5707 5709 5710 5712 5718 5718 5718 5719 5717 5717 5719 5720 5722 5721 5720 5720 5721 5722 5722 5723 5724 5725 5726 5728 5734 5737 5741 5745
5614 5618 5622 5624 5626 5625 5625 5626 5631 5645 5646 5650 5657 5664 5668 5672 5675 5680 5684 5690 5694 5697 5701 5703 5704 5708 5710 5711 5709 5708 5710 5711 5714 5716 5715 5713 5714 5715 5715 5715 5716 5717 5719 5719 5720 5728 5732 5737 5741
5599 5609 5609 5612 5614 5616 5619 5615 5627 5636 5640 5642 5647 5654 5657 5660 5666 5672 5677 5681 5685 5689 5693 5694 5697 5698 5700 5702 5700 5701 5703 5705 5707 5708 5708 5707 5708 5708 5708 5709 5709 5711 5711 5713 5717 5721 5727 5730 5735
5591 5599 5599 5602 5605 5606 5610 5611 5620 5628 5632 5635 5640 5643 5647 5654 5658 5664 5668 5673 5676 5679 5682 5685 5690 5690 5692 5693 5692 5693 5696 5699 5700 5700 5700 5701 5702 5702 5702 5702 5703 5704 5705 5708 5710 5714 5719 5724 5729
5587 5589 5592 5594 5597 5597 5603 5606 5610 5620 5628 5630 5624 5637 5639 5644 5650 5656 5660 5665 5668 5672 5674 5675 5681 5679 5683 5683 5683 5687 5690 5691 5692 5693 5694 5695 5696 5695 5695 5695 5695 5696 5697 5700 5703 5708 5712 5718 5723
5576 5581 5586 5588 5589 5591 5599 5602 5604 5614 5616 5620 5625 5626 5630 5637 5644 5648 5653 5656 5660 5663 5666 5668 5671 5670 5675 5675 5677 5681 5684 5683 5684 5687 5688 5689 5689 5688 5687 5687 5686 5687 5689 5693 5695 5701 5707 5712 5716
5566 5573 5580 5583 5588 5590 5594 5595 5601 5606 5612 5614 5614 5618 5622 5630 5637 5641 5645 5649 5651 5654 5657 5661 5660 5661 5666 5669 5672 5674 5676 5677 5677 5680 5681 5681 5681 5681 5679 5678 5678 5678 5680 5684 5689 5693 5700 5705 5709
5559 5565 5579 5581 5583 5588 5589 5596 5597 5606 5607 5606 5611 5610 5615 5624 5628 5631 5635 5637 5641 5646 5649 5650 5651 5654 5658 5663 5665 5668 5670 5671 5672 5675 5674 5674 5674 5672 5671 5669 5668 5667 5670 5676 5681 5688 5694 5699 5703
5555 5566 5570 5575 5582 5585 5586 5591 5595 5594 5598 5599 5602 5606 5612 5615 5620 5623 5626 5631 5636 5638 5638 5640 5644 5647 5652 5656 5660 5662 5664 5665 5668 5669 5668 5668 5667 5665 5664 5663 5660 5660 5664 5669 5676 5682 5687 5692 5697
5553 5559 5565 5571 5576 5581 5584 5590 5590 5587 5588 5589 5595 5601 5606 5608 5612 5616 5619 5623 5627 5630 5632 5636 5638 5643 5647 5651 5653 5657 5658 5661 5663 5664 5664 5663 5661 5659 5656 5655 5654 5656 5661 5665 5670 5676 5681 5685 5690
5551 5558 5562 5565 5573 5578 5582 5588 5576 5577 5585 5585 5590 5596 5600 5602 5605 5610 5613 5617 5621 5623 5627 5631 5634 5639 5643 5645 5648 5652 5654 5657 5658 5659 5659 5658 5656 5654 5651 5649 5648 5651 5655 5659 5664 5669 5675 5680 5685